sat.trackr.live / text

‹ back to catalog

ONEWEB-0632

NORAD 56073 · 2023-043AD

PAYLOAD ACTIVE UNKNOWN

§ Identity

Operator
Country
UK
Launch date
2023-03-26
Launch site
SRILR
Launch vehicle
Mass (kg)
RCS (m²)

Purposes: comms

External: N2YO · Heavens-Above · Gunter

§ Orbital elements

Epoch: 2026-05-25T01:09:12.727008Z

Period
109.46 min
Inclination
87.8990°
Eccentricity
0.0002032
Mean motion
13.15548315 rev/d
Perigee alt
1,200.2 km
Apogee alt
1,203.3 km
Semi-major
7,579.9 km
B*
-8.6231e-4
RAAN
263.8241°
Arg perigee
96.4838°
Mean anomaly
263.6523°
Rev number
15,338

§ Raw data

ONEWEB-06321 56073U 23043AD  26145.04806397 -.00000312  00000+0 -86231-3 0  99982 56073  87.8990 263.8241 0002032  96.4838 263.6523 13.15548315153388

JSON: /api/v1/satellites/56073 · /tle

For live sub-satellite position, see the globe view (requires WebGL).

§ Visibility from observer

Set your observer location to see the next 7 days of passes ≥ 10°. The values pass through the URL so the page stays shareable.

No JS? Fill the form by hand. The geolocation button needs JavaScript.